Regional Weather Roundup
Issued by NWS

Home | Current Version | Previous Version | Text Only | Print | Product List | Glossary On
Versions: 1 2 3 4 5 6 7 8 9 10 11 12 13 14 15 16 17 18 19 20 21 22 23 24 25 26 27 28 29 30 31 32 33 34 35 36 37 38 39 40 41 42 43 44 45 46 47 48 49 50
000
ASCA44 KEWX 020220
RWRMX

LATIN AMERICA AND CARIBBEAN REGIONAL WEATHER ROUNDUP
NATIONAL WEATHER SERVICE AUSTIN/SAN ANTONIO TX
900 PM CDT WED OCT 01 2014

NOTE: "FAIR" INDICATED FEW OR NO CLOUDS BELOW 12,000 FEET WITH NO
SIGNIFICANT WEATHER AND/OR OBSTRUCTIONS TO VISIBILITY.

BAJA CALIFORNIA

CITY           SKY/WX    TMP DP  RH WIND       PRES   REMARKS
LORETO           N/A    N/A N/A N/A MISG        N/A
LA PAZ         PTCLDY    86  73  66 SW8       29.73  HX  93
MEXICALI       CLEAR     88  37  16 SW3       29.74
S.J. DEL CABO  PTCLDY    84  79  84 CALM      29.73R HX  96
TIJUANA        CLEAR     68  59  73 W8        29.84R

NORTHWESTERN MEXICO

CITY           SKY/WX    TMP DP  RH WIND       PRES   REMARKS
CULIACAN       PTCLDY    88  79  74 N6        29.70  HX 102
DURANGO        PTCLDY    70  43  37 NE6       30.07R
GUAYMAS        CLEAR     91  72  52 SW6       29.65  HX  98
HERMOSILLO     CLEAR     86  64  48 CALM      29.79
CD. JUAREZ     CLEAR     77  45  31 W6        29.84
LOS MOCHIS     CLEAR     86  72  62 NW12      29.70R HX  92
OBREGON        CLEAR     90  63  40 W7        29.66  HX  90

NORTHEASTERN MEXICO

CITY           SKY/WX    TMP DP  RH WIND       PRES   REMARKS
CHIHUAHUA      CLEAR     68  54  60 SE8       29.94
MATAMOROS      PTCLDY    82  81  94 SE9       29.81  HX  95
MONTERREY      CLEAR     79  72  78 CALM      29.79R
NUEVO LAREDO   PTCLDY    88  72  58 S7        29.75  HX  94
REYNOSA        PTCLDY    79  72  78 S6        29.78
SALTILLO       CLEAR     72  63  73 N7        30.02R
TORREON        PTCLDY    84  48  28 NW6       29.89R
CD. VICTORIA   CLEAR     79  70  73 S9        29.78

WESTERN MEXICO

CITY           SKY/WX    TMP DP  RH WIND       PRES   REMARKS
AGUASCALIENTES MOCLDY    63  54  72 SW3       30.11
COLIMA         MOCLDY    72  70  94 CALM      29.90R
DEL BAJIO      TSTM      61  59  94 NE14      30.15R
GUADALAJARA    CLOUDY    70  63  78 S5        30.05
MANZANILLO     CLOUDY    77  75  94 N6        29.72R
MAZATLAN       MOCLDY    79  75  89 S7        29.71R
P. VALLARTA    CLOUDY    81  77  89 CALM      29.76R
ZACATECAS      MOCLDY    63  54  72 NE12      30.16R

CENTRAL MEXICO

CITY           SKY/WX    TMP DP  RH WIND       PRES   REMARKS
MEXICO CITY    MOCLDY    68  52  56 S9        30.20R
MORELIA        CLOUDY    66  59  77 S5        30.15
POZA RICA      CLEAR     82  75  78 E9        29.82R
PUEBLA         PTCLDY    59  55  88 S8        30.22R
QUERETARO      LGT RAIN  63  61  94 NE9       30.14R
S. LUIS POTOSI PTCLDY    64  54  68 E6        30.11R
TAMPICO        PTCLDY    82  75  78 E9        29.80R
TOLUCA         CLOUDY    59  50  72 S13       30.27R

SOUTHERN MEXICO

CITY           SKY/WX    TMP DP  RH WIND       PRES   REMARKS
ACAPULCO       TSTM      75  75 100 SE2       29.84R
B. DE HUATULCO CLOUDY    72  70  94 N9        29.92
OAXACA         CLOUDY    64  63  94 CALM      30.13
VERACRUZ       CLEAR     82  75  78 E5        29.81R
ZIHUATANEJO    MOCLDY    79  75  89 E6        29.80R

YUCATAN PENINSULA

CITY           SKY/WX    TMP DP  RH WIND       PRES   REMARKS
CAMPECHE       PTCLDY    82  77  83 E6        29.83R HX  91
CANCUN         MOCLDY    82  79  89 SE7       29.94R HX  93
CHETUMAL       MOCLDY    84  75  74 NE12      29.87R HX  92
CD. DEL CARMEN PTCLDY    86  75  70 E6        29.84  HX  95
COZUMEL        PTCLDY    77  77 100 E3        29.94R
MERIDA         PTCLDY    82  75  78 E12       29.88R
TAPACHULA      MOCLDY    82  79  89 N6        29.91R HX  93
TUX. GUTIERREZ MOCLDY    73  70  88 SW6       29.94R
VILLAHERMOSA   MOCLDY    79  73  83 CALM      29.85R

CENTRAL AMERICA

CITY           SKY/WX    TMP DP  RH WIND       PRES   REMARKS
MANAGUA        PTCLDY    82  77  83 NE5       29.80R THUNDER HX  91

CARIBBEAN

CITY           SKY/WX    TMP DP  RH WIND       PRES   REMARKS
ARUBA          PTCLDY    84  75  74 E21       29.89R HX  92
CURACAO        PTCLDY    82  77  83 E15       29.92S HX  91
KINGSTON       PTCLDY    84  75  74 E7        29.94R HX  92
NASSAU         PTCLDY    82  75  78 CALM      30.01R
SAN JUAN       PTCLDY    82  75  78 E5        30.04R
SANTO DOMINGO  PTCLDY    79  75  89 E5        30.00R
ST. CROIX      PTCLDY    81  75  83 NE5       30.04R

$$




USA.gov is the U.S. government's official web portal to all federal, state and local government web resources and services.